Weather History for Lyndonville, VT

Change the Weather History Date:

Wednesday, August 14, 2013

  Actual Average (K1V4) Record (K1V4)
Temperature  
Mean Temperature 60 °F 68 °F  
Max Temperature 68 °F 79 °F 98 °F (1944)
Min Temperature 52 °F 57 °F 39 °F (1957)
Degree Days  
Heating Degree Days 5 1  
Month to date heating degree days 13  
Since 1 June heating degree days 100  
Since 1 July heating degree days 28  
Cooling Degree Days 0 4  
Month to date cooling degree days 64  
Year to date cooling degree days 341  
Since 1 June cooling degree days 323  
Growing Degree Days 10 (Base 50)    
Moisture  
Dew Point 52 °F    
Average Humidity 74    
Maximum Humidity 91    
Minimum Humidity 55    
Precipitation  
Precipitation 0.00 in 0.15 in 1.30 in (1955)
Month to date precipitation 2.18  
Year to date precipitation 23.72  
Sea Level Pressure  
Sea Level Pressure 29.77 in    
Wind  
Wind Speed 4 mph (WNW)    
Max Wind Speed 17 mph    
Max Gust Speed 28 mph    
Visibility 9 miles    
Events Rain    
T = Trace of Precipitation, MM = Missing Value Source: NWS Daily Summary

Daily Weather History Graph

Daily Weather History Graph

Search for Another Location

Airport:

Trip Planner

Search our weather history database for the weather conditions in past years. The results will help you decide how hot, cold, wet, or windy it might be!

Date:

Astronomy

Aug. 14, 2013 Rise Set
Actual Time 5:49 AM EDT 7:54 PM EDT
Civil Twilight 5:18 AM EDT 8:26 PM EDT
Nautical Twilight 4:38 AM EDT 9:05 PM EDT
Astronomical Twilight 3:55 AM EDT 9:48 PM EDT
Moon 2:06 PM EDT (8/14) 11:54 PM EDT (8/14)
Length of Visible Light 15h 08m
Length of Day
14h 04m
First Quarter, 52% of the Moon is Illuminated
Aug 14
First Quarter
Aug 20
Full
Aug 28
Last Quarter
Sep 5
New
Sep 12
First Quarter

Hourly Weather History & Observations

Time (EDT) Temp. Dew Point Humidity Pressure Visibility Wind Dir Wind Speed Gust Speed Precip Events Conditions
12:15 AM 63.5 °F 60.4 °F 90% 29.72 in 5.0 mi Calm Calm - N/A   Overcast
12:35 AM 63.3 °F 60.3 °F 90% 29.72 in 7.0 mi SSE 3.5 mph - N/A   Overcast
12:55 AM 61.7 °F 59.0 °F 91% 29.71 in 7.0 mi Calm Calm - N/A   Mostly Cloudy
1:15 AM 62.4 °F 59.4 °F 90% 29.71 in 5.0 mi Calm Calm - N/A   Overcast
1:35 AM 62.1 °F 59.4 °F 91% 29.70 in 7.0 mi Calm Calm - N/A   Overcast
1:55 AM 61.9 °F 59.2 °F 91% 29.70 in 7.0 mi Calm Calm - N/A   Overcast
2:15 AM 61.7 °F 59.0 °F 91% 29.70 in 2.5 mi Calm Calm - N/A   Overcast
2:35 AM 62.1 °F 59.4 °F 91% 29.70 in 7.0 mi Calm Calm - N/A   Overcast
2:55 AM 61.7 °F 59.0 °F 91% 29.70 in 2.5 mi Calm Calm - N/A   Overcast
3:15 AM 61.7 °F 59.0 °F 91% 29.70 in 0.5 mi West 3.5 mph - N/A Rain Light Rain
3:35 AM 60.3 °F 57.6 °F 91% 29.70 in 10.0 mi NNW 3.5 mph - N/A   Mostly Cloudy
3:55 AM 59.4 °F 55.6 °F 87% 29.70 in 10.0 mi Calm Calm - N/A   Scattered Clouds
4:15 AM 58.8 °F 54.3 °F 85% 29.71 in 10.0 mi Calm Calm - N/A   Scattered Clouds
4:35 AM 59.7 °F 53.8 °F 81% 29.71 in 10.0 mi NNE 3.5 mph - N/A   Overcast
4:55 AM 59.5 °F 52.9 °F 79% 29.71 in 10.0 mi NW 3.5 mph - N/A   Overcast
5:15 AM 59.0 °F 52.3 °F 79% 29.71 in 10.0 mi WNW 5.8 mph - N/A   Overcast
5:35 AM 58.5 °F 50.7 °F 75% 29.71 in 10.0 mi NW 5.8 mph - N/A   Overcast
5:55 AM 57.2 °F 49.3 °F 75% 29.71 in 10.0 mi WNW 10.4 mph - N/A   Mostly Cloudy
6:15 AM 56.8 °F 48.7 °F 74% 29.72 in 10.0 mi WNW 3.5 mph - N/A   Mostly Cloudy
6:35 AM 57.0 °F 48.0 °F 72% 29.72 in 10.0 mi NNW 3.5 mph - N/A   Overcast
6:55 AM 57.4 °F 48.6 °F 72% 29.72 in 10.0 mi NE 3.5 mph - N/A   Overcast
7:15 AM 57.6 °F 48.7 °F 72% 29.73 in 10.0 mi Calm Calm - N/A   Mostly Cloudy
7:35 AM 58.1 °F 48.6 °F 71% 29.74 in 10.0 mi WNW 3.5 mph - N/A   Mostly Cloudy
7:55 AM 57.9 °F 48.2 °F 70% 29.74 in 10.0 mi West 4.6 mph - N/A   Mostly Cloudy
8:15 AM 58.1 °F 48.2 °F 70% 29.74 in 10.0 mi West 3.5 mph - N/A   Mostly Cloudy
8:35 AM 58.5 °F 48.0 °F 68% 29.74 in 10.0 mi West 3.5 mph - N/A   Overcast
8:55 AM 59.0 °F 48.4 °F 68% 29.74 in 10.0 mi West 6.9 mph - N/A   Overcast
9:15 AM 58.5 °F 48.0 °F 68% 29.74 in 10.0 mi WSW 4.6 mph - N/A   Overcast
9:35 AM 60.4 °F 50.5 °F 70% 29.74 in 10.0 mi SSW 3.5 mph - N/A   Mostly Cloudy
9:55 AM 62.1 °F 50.0 °F 65% 29.75 in 10.0 mi West 6.9 mph - N/A   Mostly Cloudy
10:15 AM 60.8 °F 49.5 °F 66% 29.75 in 10.0 mi WSW 5.8 mph - N/A   Overcast
10:35 AM 60.3 °F 49.5 °F 68% 29.76 in 10.0 mi West 5.8 mph - N/A   Overcast
10:55 AM 62.2 °F 50.4 °F 65% 29.75 in 10.0 mi West 5.8 mph - N/A   Overcast
11:15 AM 63.9 °F 50.0 °F 61% 29.75 in 10.0 mi West 6.9 mph - N/A   Overcast
11:35 AM 63.0 °F 50.0 °F 63% 29.75 in 10.0 mi West 12.7 mph 18.4 mph N/A   Mostly Cloudy
11:55 AM 63.5 °F 49.8 °F 61% 29.75 in 10.0 mi WSW 8.1 mph - N/A   Mostly Cloudy
12:15 PM 63.5 °F 49.8 °F 61% 29.75 in 10.0 mi West 8.1 mph - N/A   Mostly Cloudy
12:35 PM 63.1 °F 49.8 °F 62% 29.76 in 10.0 mi West 11.5 mph 19.6 mph N/A   Overcast
12:55 PM 65.3 °F 51.1 °F 60% 29.76 in 10.0 mi WNW 13.8 mph 19.6 mph N/A   Overcast
1:15 PM 65.8 °F 50.5 °F 58% 29.76 in 10.0 mi West 11.5 mph 18.4 mph N/A   Overcast
1:35 PM 68.2 °F 51.3 °F 55% 29.76 in 10.0 mi WNW 12.7 mph 19.6 mph N/A   Scattered Clouds
1:55 PM 64.8 °F 50.0 °F 59% 29.76 in 10.0 mi West 13.8 mph 23.0 mph N/A   Scattered Clouds
2:15 PM 59.0 °F 51.1 °F 75% 29.78 in 10.0 mi West 11.5 mph 17.3 mph N/A   Mostly Cloudy
2:35 PM 63.5 °F 52.9 °F 68% 29.79 in 10.0 mi West 12.7 mph 16.1 mph N/A   Scattered Clouds
2:55 PM 63.9 °F 51.8 °F 65% 29.78 in 10.0 mi West 12.7 mph 19.6 mph N/A   Mostly Cloudy
3:55 PM 63.3 °F 48.7 °F 59% 29.79 in 10.0 mi NW 17.3 mph 27.6 mph N/A   Scattered Clouds
4:15 PM 63.0 °F 49.5 °F 61% 29.81 in 10.0 mi WNW 9.2 mph 19.6 mph N/A   Mostly Cloudy
6:35 PM 60.1 °F 47.7 °F 64% 29.87 in 10.0 mi NW 6.9 mph - N/A   Mostly Cloudy
6:55 PM 58.5 °F 48.0 °F 68% 29.87 in 10.0 mi NW 5.8 mph - N/A   Scattered Clouds
7:15 PM 58.5 °F 48.6 °F 70% 29.89 in 10.0 mi West 4.6 mph - N/A   Mostly Cloudy
7:35 PM 58.1 °F 48.7 °F 71% 29.89 in 10.0 mi West 4.6 mph - N/A   Mostly Cloudy
7:55 PM 57.6 °F 49.6 °F 75% 29.90 in 10.0 mi Calm Calm - N/A   Drizzle
8:15 PM 57.0 °F 49.6 °F 76% 29.91 in 10.0 mi NW 5.8 mph - N/A Rain Light Rain
8:35 PM 56.3 °F 50.4 °F 80% 29.92 in 10.0 mi WNW 5.8 mph - N/A   Overcast
8:55 PM 55.8 °F 50.4 °F 82% 29.93 in 10.0 mi WNW 3.5 mph - N/A   Overcast
11:35 PM 52.0 °F 48.7 °F 89% 29.95 in 10.0 mi Calm Calm - N/A   Clear
11:55 PM 53.6 °F 47.5 °F 80% 29.96 in 10.0 mi Calm Calm - N/A   Clear